Weather History for Poughkeepsie, NY

Change the Weather History Date:

Sunday, December 26, 2010

  Actual Average Record
Temperature  
Mean Temperature 21 °F 28 °F  
Max Temperature 25 °F 37 °F 60 °F (1964)
Min Temperature 17 °F 19 °F -13 °F (1980)
Degree Days  
Heating Degree Days 44 37  
Month to date heating degree days 939 860  
Since 1 July heating degree days 2085 2138  
Cooling Degree Days 0 0  
Month to date cooling degree days 0 0  
Year to date cooling degree days 911 672  
Moisture  
Dew Point 14 °F    
Average Humidity 80    
Maximum Humidity 92    
Minimum Humidity 67    
Precipitation  
Precipitation 0.14 in 0.12 in 1.41 in (1957)
Month to date precipitation 2.34 3.03  
Year to date precipitation 38.53 46.03  
Sea Level Pressure  
Sea Level Pressure 29.67 in    
Wind  
Wind Speed 13 mph (North)    
Max Wind Speed 68 mph    
Max Gust Speed 186 mph    
Visibility 3 miles    
Events Fog , Snow    
T = Trace of Precipitation, MM = Missing Value Source: NWS Daily Summary

Daily Weather History Graph

Daily Weather History Graph

Search for Another Location

Airport:

Trip Planner

Search our weather history database for the weather conditions in past years. The results will help you decide how hot, cold, wet, or windy it might be!

Date:

Astronomy

Dec. 26, 2010 Rise Set
Actual Time 7:21 AM EST 4:31 PM EST
Civil Twilight 6:49 AM EST 5:02 PM EST
Nautical Twilight 6:14 AM EST 5:37 PM EST
Astronomical Twilight 5:40 AM EST 6:11 PM EST
Moon 11:02 PM EST (12/26) 10:35 AM EST (12/26)
Length of Visible Light 10h 13m
Length of Day
9h 10m
Waning Gibbous, 67% of the Moon is Illuminated
Dec 26
Waning Gibbous
Dec 27
Last Quarter
Jan 4
New
Jan 12
First Quarter
Jan 19
Full

Hourly Weather History & Observations

Time (EST) Temp. Windchill Dew Point Humidity Pressure Visibility Wind Dir Wind Speed Gust Speed Precip Events Conditions
12:53 AM 24.1 °F 16.0 °F 15.1 °F 69% 29.98 in 10.0 mi North 6.9 mph - N/A   Overcast
1:53 AM 23.0 °F 13.9 °F 14.0 °F 68% 29.98 in 10.0 mi NNE 8.1 mph - N/A   Overcast
2:53 AM 21.9 °F 11.0 °F 12.9 °F 68% 29.98 in 10.0 mi North 10.4 mph - N/A   Overcast
3:53 AM 21.9 °F 11.7 °F 12.9 °F 68% 29.98 in 10.0 mi NNE 9.2 mph - N/A   Overcast
4:53 AM 19.9 °F 9.3 °F 12.0 °F 71% 29.94 in 10.0 mi North 9.2 mph - N/A   Partly Cloudy
5:53 AM 19.9 °F 10.1 °F 12.0 °F 71% 29.97 in 10.0 mi NNE 8.1 mph - N/A   Overcast
6:53 AM 19.9 °F 7.3 °F 12.0 °F 71% 29.94 in 10.0 mi NNE 12.7 mph - N/A   Overcast
7:53 AM 19.9 °F 10.1 °F 10.9 °F 68% 29.97 in 10.0 mi NNE 8.1 mph - N/A   Overcast
8:53 AM 19.9 °F 7.9 °F 12.0 °F 71% 29.96 in 10.0 mi North 11.5 mph 18.4 mph N/A   Overcast
9:53 AM 21.0 °F 12.4 °F 12.0 °F 68% 29.92 in 10.0 mi Variable 6.9 mph 19.6 mph N/A   Overcast
10:53 AM 21.9 °F 9.2 °F 12.0 °F 66% 29.90 in 10.0 mi North 13.8 mph - N/A   Overcast
11:53 AM 21.9 °F 8.7 °F 12.9 °F 68% 29.84 in 10.0 mi North 15.0 mph 24.2 mph N/A   Overcast
12:41 PM 23.0 °F 10.1 °F 14.0 °F 68% 29.78 in 4.0 mi NNE 15.0 mph 23.0 mph 0.00 in Snow Light Snow
12:53 PM 21.9 °F 8.2 °F 14.0 °F 72% 29.78 in 2.5 mi NNE 16.1 mph 25.3 mph 0.00 in Snow Light Snow
1:00 PM 21.2 °F 9.5 °F 15.8 °F 80% 29.77 in 2.0 mi North 11.5 mph 25.3 mph 0.00 in Snow Light Snow
1:11 PM 21.2 °F 7.8 °F 15.8 °F 80% 29.77 in 1.5 mi North 15.0 mph 21.9 mph 0.00 in Snow Light Snow
1:19 PM 21.2 °F 8.3 °F 15.8 °F 80% 29.77 in 1.2 mi North 13.8 mph - 0.00 in Snow Light Snow
1:53 PM 21.9 °F 8.2 °F 16.0 °F 78% 29.75 in 2.5 mi North 16.1 mph 21.9 mph 0.00 in Snow Light Snow
2:08 PM 21.2 °F 7.8 °F 15.8 °F 80% 29.73 in 1.8 mi North 15.0 mph 24.2 mph 0.00 in Snow Light Snow
2:33 PM 21.2 °F 8.3 °F 15.8 °F 80% 29.73 in 1.0 mi North 13.8 mph 20.7 mph 0.00 in Snow Light Snow
2:43 PM 21.2 °F 9.5 °F 15.8 °F 80% 29.72 in 0.8 mi North 11.5 mph 21.9 mph 0.00 in Snow Light Snow
2:51 PM 21.2 °F 8.9 °F 15.8 °F 80% 29.72 in 0.8 mi NNE 12.7 mph 23.0 mph 0.00 in Snow Light Snow
2:53 PM 21.0 °F 9.3 °F 16.0 °F 81% 29.72 in 0.8 mi North 11.5 mph 23.0 mph 0.00 in Snow Light Snow
3:53 PM 19.9 °F 5.2 °F 16.0 °F 85% 29.66 in 0.5 mi North 17.3 mph 26.5 mph 0.00 in Fog , Snow Snow
4:09 PM 19.4 °F 5.5 °F 15.8 °F 86% 29.65 in 0.5 mi North 15.0 mph 23.0 mph 0.00 in Fog , Snow Snow
4:53 PM 19.9 °F 6.2 °F 16.0 °F 85% 29.62 in 0.5 mi North 15.0 mph 27.6 mph 0.01 in Fog , Snow Snow
5:53 PM 19.0 °F 4.5 °F 16.0 °F 88% 29.58 in 0.5 mi North 16.1 mph 28.8 mph 0.01 in Fog Light Freezing Fog
6:08 PM 19.4 °F 3.6 °F 15.8 °F 86% 29.59 in 0.2 mi North 19.6 mph 27.6 mph N/A Fog Light Freezing Fog
6:20 PM 19.4 °F 3.2 °F 15.8 °F 86% 29.57 in 0.2 mi North 20.7 mph 186.4 mph 0.01 in Fog Light Freezing Fog
6:45 PM 17.6 °F 2.2 °F 15.8 °F 93% 29.55 in 0.5 mi North 17.3 mph 73.6 mph 0.02 in Fog Light Freezing Fog
6:53 PM 18.0 °F 4.2 °F 15.1 °F 88% 29.53 in 0.2 mi North 13.8 mph 27.6 mph 0.02 in Fog Light Freezing Fog
7:19 PM 17.6 °F 2.7 °F 15.8 °F 93% 29.51 in 0.5 mi North 16.1 mph 26.5 mph N/A Fog Light Freezing Fog
7:33 PM 17.6 °F 2.2 °F 14.0 °F 86% 29.50 in 0.2 mi North 17.3 mph 150.8 mph 0.01 in Fog Light Freezing Fog
7:53 PM 17.1 °F 2.0 °F 14.0 °F 88% 29.50 in 0.2 mi North 16.1 mph 25.3 mph 0.02 in Fog Light Freezing Fog
8:02 PM 17.6 °F 3.2 °F 14.0 °F 86% 29.49 in 0.5 mi North 15.0 mph 27.6 mph N/A Fog Light Freezing Fog
8:18 PM 17.6 °F 2.7 °F 14.0 °F 86% 29.47 in 0.2 mi North 16.1 mph 28.8 mph N/A Fog Light Freezing Fog
8:53 PM 17.1 °F 1.0 °F 14.0 °F 88% 29.44 in 0.2 mi North 18.4 mph 32.2 mph 0.02 in Fog Light Freezing Fog
9:09 PM 17.6 °F 2.7 °F 12.2 °F 79% 29.44 in 0.2 mi North 16.1 mph 183.0 mph N/A Fog Light Freezing Fog
9:18 PM 17.6 °F 0.9 °F 12.2 °F 79% 29.42 in 0.5 mi NNW 20.7 mph 31.1 mph N/A Fog Light Freezing Fog
9:26 PM 17.6 °F 2.7 °F 14.0 °F 86% 29.41 in 0.2 mi North 16.1 mph 28.8 mph 0.01 in Fog Light Freezing Fog
9:53 PM 17.1 °F 3.0 °F 14.0 °F 88% 29.39 in 0.2 mi NNW 13.8 mph 28.8 mph 0.01 in Fog Light Freezing Fog
10:53 PM 17.1 °F - 14.0 °F 88% 29.33 in 0.2 mi North - - 0.04 in Fog Light Freezing Fog
11:17 PM 17.6 °F - 14.0 °F 86% 29.31 in 0.5 mi North - - N/A Fog Light Freezing Fog
11:48 PM 17.6 °F - 15.8 °F 93% 29.29 in 0.2 mi North - - 0.01 in Fog Light Freezing Fog
11:53 PM 18.0 °F - 15.1 °F 88% 29.28 in 0.2 mi North - - 0.01 in Fog Light Freezing Fog